When you browse on this site, cookies collect data to enhance your experience and personalize the content and advertising you see.
Visit our Privacy Policy to learn more. By continuing to use the site, you agree to this use of cookies and data.
  • In Switzerland
  • List of Countries
  • For 7 days
  • Water Temperature
  • Satellite Maps
  • Weather Map
  • Weather Widgets
  • user-avatar
    Login

    Hourly Weather Sevan

    Today, 25 April, Thursday

    Time Temperature Precipitation Wind Pressure Humidity
    00:00 +5°C° 0.2 mm 1 mps 645 mmHg 73%
    01:00 +5°C° 0.4 mm 1 mps 645 mmHg 74%
    02:00 +5°C° 0.4 mm 1 mps 645 mmHg 75%
    03:00 +4°C° 0 mm 1 mps 645 mmHg 78%
    04:00 +4°C° 0.3 mm 1 mps 645 mmHg 78%
    05:00 +4°C° 0.3 mm 1 mps 645 mmHg 78%
    06:00 +4°C° 0.3 mm 1 mps 645 mmHg 77%
    07:00 +5°C° 0.1 mm 1 mps 645 mmHg 72%
    08:00 +6°C° 0.1 mm 1 mps 645 mmHg 67%
    09:00 +7°C° 0 mm 1 mps 645 mmHg 61%
    10:00 +8°C° 0 mm 1 mps 645 mmHg 58%
    11:00 +9°C° 0 mm 1 mps 645 mmHg 54%
    12:00 +10°C° 0 mm 1 mps 645 mmHg 51%
    13:00 +10°C° 0.1 mm 1 mps 645 mmHg 50%
    14:00 +11°C° 0.1 mm 1 mps 645 mmHg 49%
    15:00 +10°C° 0.1 mm 2 mps 645 mmHg 49%
    16:00 +10°C° 0 mm 1 mps 644 mmHg 51%
    17:00 +10°C° 0 mm 1 mps 644 mmHg 54%
    18:00 +9°C° 0 mm 1 mps 644 mmHg 56%
    19:00 +7°C° 0 mm 2 mps 644 mmHg 59%
    20:00 +5°C° 0 mm 2 mps 644 mmHg 62%
    21:00 +4°C° 0 mm 2 mps 644 mmHg 65%
    22:00 +4°C° 0 mm 2 mps 644 mmHg 66%
    23:00 +3°C° 0 mm 2 mps 645 mmHg 66%

    Tomorrow, 26 April, Friday

    Time Temperature Precipitation Wind Pressure Humidity
    00:00 +3°C° 0 mm 2 mps 645 mmHg 67%
    01:00 +3°C° 0 mm 2 mps 645 mmHg 67%
    02:00 +2°C° 0 mm 2 mps 645 mmHg 68%
    03:00 +2°C° 0 mm 2 mps 645 mmHg 68%
    04:00 +2°C° 0 mm 2 mps 645 mmHg 67%
    05:00 +2°C° 0 mm 2 mps 645 mmHg 66%
    06:00 +4°C° 0 mm 1 mps 645 mmHg 65%
    07:00 +5°C° 0 mm 1 mps 645 mmHg 60%
    08:00 +7°C° 0 mm 1 mps 645 mmHg 55%
    09:00 +9°C° 0 mm 1 mps 645 mmHg 50%
    10:00 +10°C° 0 mm 1 mps 645 mmHg 47%
    11:00 +11°C° 0 mm 1 mps 645 mmHg 44%
    12:00 +12°C° 0 mm 2 mps 644 mmHg 42%
    13:00 +12°C° 0 mm 2 mps 644 mmHg 42%
    14:00 +12°C° 0 mm 2 mps 644 mmHg 41%
    15:00 +13°C° 0 mm 1 mps 644 mmHg 41%
    16:00 +12°C° 0 mm 1 mps 643 mmHg 44%
    17:00 +11°C° 0 mm 1 mps 643 mmHg 46%
    18:00 +11°C° 0 mm 1 mps 643 mmHg 49%
    19:00 +9°C° 0 mm 1 mps 643 mmHg 53%
    20:00 +8°C° 0 mm 1 mps 643 mmHg 57%
    21:00 +6°C° 0 mm 1 mps 643 mmHg 60%
    22:00 +6°C° 0 mm 1 mps 643 mmHg 62%
    23:00 +6°C° 0 mm 1 mps 643 mmHg 65%

    Day after tomorrow, 27 April, Saturday

    Time Temperature Precipitation Wind Pressure Humidity
    00:00 +5°C° 0 mm 1 mps 643 mmHg 67%
    01:00 +5°C° 0 mm 1 mps 643 mmHg 68%
    02:00 +5°C° 0 mm 1 mps 643 mmHg 69%
    03:00 +4°C° 0 mm 1 mps 643 mmHg 70%
    04:00 +5°C° 0 mm 1 mps 643 mmHg 69%
    05:00 +5°C° 0 mm 1 mps 643 mmHg 68%
    06:00 +5°C° 0 mm 1 mps 643 mmHg 68%
    07:00 +7°C° 0 mm 1 mps 643 mmHg 61%
    08:00 +8°C° 0 mm 1 mps 643 mmHg 53%
    09:00 +9°C° 0 mm 2 mps 643 mmHg 46%
    10:00 +10°C° 0 mm 2 mps 643 mmHg 44%
    11:00 +12°C° 0 mm 2 mps 643 mmHg 42%
    12:00 +12°C° 0 mm 3 mps 643 mmHg 40%
    13:00 +12°C° 0 mm 3 mps 643 mmHg 39%
    14:00 +13°C° 0 mm 3 mps 643 mmHg 39%
    15:00 +13°C° 0 mm 3 mps 643 mmHg 38%
    16:00 +13°C° 0 mm 2 mps 642 mmHg 40%
    17:00 +12°C° 0 mm 2 mps 642 mmHg 42%
    18:00 +12°C° 0 mm 1 mps 641 mmHg 44%
    19:00 +10°C° 0 mm 1 mps 641 mmHg 44%
    20:00 +9°C° 0 mm 1 mps 641 mmHg 45%
    21:00 +8°C° 0 mm 1 mps 641 mmHg 45%
    22:00 +7°C° 0 mm 1 mps 641 mmHg 45%
    23:00 +7°C° 0 mm 1 mps 641 mmHg 45%

    28 April, Sunday

    Time Temperature Precipitation Wind Pressure Humidity
    00:00 +6°C° 0 mm 1 mps 641 mmHg 45%
    01:00 +6°C° 0 mm 1 mps 641 mmHg 46%
    02:00 +6°C° 0 mm 1 mps 641 mmHg 47%
    03:00 +6°C° 0 mm 1 mps 640 mmHg 49%
    04:00 +6°C° 0 mm 1 mps 640 mmHg 51%
    05:00 +6°C° 0 mm 1 mps 641 mmHg 53%
    06:00 +7°C° 0 mm 1 mps 641 mmHg 55%
    07:00 +7°C° 0 mm 2 mps 641 mmHg 52%
    08:00 +9°C° 0 mm 2 mps 641 mmHg 49%
    09:00 +12°C° 0 mm 2 mps 641 mmHg 47%
    10:00 +12°C° 0 mm 3 mps 641 mmHg 46%
    11:00 +13°C° 0 mm 3 mps 641 mmHg 46%
    12:00 +13°C° 0 mm 3 mps 641 mmHg 45%
    13:00 +14°C° 0.1 mm 3 mps 640 mmHg 45%
    14:00 +14°C° 0.1 mm 3 mps 640 mmHg 45%
    15:00 +16°C° 0.1 mm 3 mps 640 mmHg 45%
    16:00 +14°C° 0.2 mm 3 mps 640 mmHg 48%
    17:00 +14°C° 0.2 mm 2 mps 640 mmHg 51%
    18:00 +14°C° 0.2 mm 2 mps 639 mmHg 54%
    19:00 +12°C° 0.1 mm 2 mps 640 mmHg 56%
    20:00 +11°C° 0.1 mm 1 mps 640 mmHg 58%
    21:00 +10°C° 0.1 mm 1 mps 640 mmHg 59%
    22:00 +9°C° 0 mm 1 mps 640 mmHg 60%
    23:00 +9°C° 0 mm 1 mps 640 mmHg 61%

    29 April, Monday

    Time Temperature Precipitation Wind Pressure Humidity
    00:00 +9°C° 0 mm 1 mps 640 mmHg 61%
    01:00 +8°C° 0 mm 1 mps 640 mmHg 62%
    02:00 +8°C° 0 mm 1 mps 640 mmHg 63%
    03:00 +8°C° 0 mm 1 mps 639 mmHg 64%
    04:00 +8°C° 0 mm 1 mps 640 mmHg 65%
    05:00 +8°C° 0 mm 1 mps 640 mmHg 67%
    06:00 +9°C° 0 mm 1 mps 640 mmHg 68%
    07:00 +9°C° 0 mm 2 mps 640 mmHg 65%
    08:00 +12°C° 0 mm 2 mps 641 mmHg 62%
    09:00 +13°C° 0 mm 3 mps 641 mmHg 59%
    10:00 +13°C° 0.1 mm 3 mps 641 mmHg 57%
    11:00 +14°C° 0.1 mm 3 mps 641 mmHg 54%
    12:00 +16°C° 0.1 mm 3 mps 641 mmHg 52%
    13:00 +16°C° 0.4 mm 3 mps 640 mmHg 52%
    14:00 +16°C° 0.4 mm 3 mps 640 mmHg 52%
    15:00 +16°C° 0.4 mm 3 mps 640 mmHg 52%
    16:00 +16°C° 0.6 mm 2 mps 639 mmHg 56%
    17:00 +15°C° 0.6 mm 2 mps 639 mmHg 59%
    18:00 +14°C° 0.6 mm 2 mps 639 mmHg 62%
    19:00 +13°C° 0.4 mm 2 mps 639 mmHg 65%
    20:00 +12°C° 0.4 mm 1 mps 639 mmHg 67%
    21:00 +11°C° 0.4 mm 1 mps 639 mmHg 69%
    22:00 +11°C° 0.2 mm 1 mps 639 mmHg 69%
    23:00 +10°C° 0.2 mm 1 mps 639 mmHg 69%

    30 April, Tuesday

    Time Temperature Precipitation Wind Pressure Humidity
    00:00 +10°C° 0.2 mm 1 mps 639 mmHg 69%
    01:00 +10°C° 0.2 mm 1 mps 639 mmHg 69%
    02:00 +9°C° 0.2 mm 2 mps 639 mmHg 69%
    03:00 +8°C° 0.2 mm 2 mps 639 mmHg 69%
    04:00 +8°C° 0.3 mm 2 mps 639 mmHg 70%
    05:00 +9°C° 0.3 mm 2 mps 639 mmHg 71%
    06:00 +9°C° 0.3 mm 2 mps 639 mmHg 71%
    07:00 +10°C° 0.2 mm 2 mps 640 mmHg 69%
    08:00 +11°C° 0.2 mm 3 mps 640 mmHg 66%
    09:00 +12°C° 0.2 mm 3 mps 640 mmHg 63%
    10:00 +13°C° 0.1 mm 3 mps 640 mmHg 61%
    11:00 +14°C° 0.1 mm 3 mps 640 mmHg 58%
    12:00 +14°C° 0.1 mm 3 mps 640 mmHg 56%
    13:00 +16°C° 0.3 mm 3 mps 640 mmHg 54%
    14:00 +17°C° 0.3 mm 3 mps 640 mmHg 53%
    15:00 +17°C° 0.3 mm 3 mps 640 mmHg 51%
    16:00 +16°C° 1 mm 3 mps 639 mmHg 54%
    17:00 +15°C° 1 mm 2 mps 639 mmHg 58%
    18:00 +15°C° 1 mm 2 mps 639 mmHg 61%
    19:00 +14°C° 0.8 mm 2 mps 639 mmHg 64%
    20:00 +13°C° 0.8 mm 2 mps 640 mmHg 66%
    21:00 +12°C° 0.8 mm 2 mps 640 mmHg 68%
    22:00 +12°C° 0.2 mm 1 mps 640 mmHg 68%
    23:00 +11°C° 0.2 mm 1 mps 640 mmHg 69%
    Show more